Regional Weather Roundup
Issued by NWS

Home | Current Version | Previous Version | Text Only | Print | Product List | Glossary Off
Versions: 1 2 3 4 5 6 7 8 9 10 11 12 13 14 15 16 17 18 19 20 21 22 23 24 25 26 27 28 29 30 31 32 33 34 35 36 37 38 39 40 41 42 43 44 45 46 47 48 49 50

000
ASUS43 KBIS 252210
RWRND

NORTH DAKOTA REGIONAL WEATHER ROUNDUP
NATIONAL WEATHER SERVICE BISMARCK ND
500 PM CDT THU MAY 25 2017

NOTE: "FAIR" INDICATES FEW OR NO CLOUDS BELOW 12,000 FEET WITH NO
SIGNIFICANT WEATHER AND/OR OBSTRUCTIONS TO VISIBILITY.


NDZ001>003-009>011-017-252300-
NORTHWEST NORTH DAKOTA

CITY           SKY/WX    TMP DP  RH WIND       PRES   REMARKS
WILLISTON      CLOUDY    61  42  49 W15       29.44R
MINOT          PTSUNNY   68  44  42 SW21G28   29.40R
MINOT AFB      MOSUNNY   66  46  48 SW17      29.39R
$$

NDZ018>021-031>035-040>046-252300-
SOUTHWEST NORTH DAKOTA

CITY           SKY/WX    TMP DP  RH WIND       PRES   REMARKS
BISMARCK       FAIR      76  40  27 W22G28    29.45R
DICKINSON      CLOUDY    60  40  47 W22G31    29.50R
GARRISON         N/A     68  42  38 W22G28    29.43R
HETTINGER ARPT SUNNY     65  40  39 W30G37    29.55R
$$

NDZ004>008-012>016-024-026-027-054-252300-
NORTHEAST NORTH DAKOTA

CITY           SKY/WX    TMP DP  RH WIND       PRES   REMARKS
GRAND FORKS    CLOUDY    67  49  52 S21G28    29.48S
GRND FRKS AFB  CLOUDY    65  48  53 S18       29.48R
DEVILS LAKE    FAIR      69  49  48 SE16      29.44S
$$

NDZ022-023-025-028>030-036>039-047>053-252300-
SOUTHEAST NORTH DAKOTA

CITY           SKY/WX    TMP DP  RH WIND       PRES   REMARKS
FARGO          CLOUDY    68  49  50 SE22G29   29.50R
JAMESTOWN      FAIR      71  50  47 SW13      29.45S
$$





USA.gov is the U.S. government's official web portal to all federal, state and local government web resources and services.